Skip Page Navigation
NASA JPL Caltech
NASA Logo - Jet Propulsion Laboratory + View the NASA Portal
+ Center for Near-Earth Object Studies
JPL Home Earth Solar System Stars & Galaxies Technology
JPL Solar System Dynamics
BODIES ORBITS EPHEMERIDES TOOLS PHYSICAL DATA DISCOVERY FAQ SITE MAP
JPL Small-Body Database Browser
Search: [ help ]  
441348 (2008 CO210)
Classification: Main-belt Asteroid          SPK-ID: 2441348
Ephemeris | Orbit Diagram | Orbital Elements | Mission Design | Physical Parameters | Discovery Circumstances | Close-Approach Data ]

[ hide orbit diagram ]

For accurate long-term ephemerides, please instead use our Horizons system.This orbit viewer was implemented using two-body methods, and hence should not be used for determining accurate long-term trajectories (over several years or decades) or planetary encounter circumstances.


[ revert to old Java-based viewer ]

Orbital Elements at Epoch 2459000.5 (2020-May-31.0) TDB
Reference: JPL 18 (heliocentric ecliptic J2000)
 Element Value Uncertainty (1-sigma)   Units 
e .1329607764139465 6.0048e-08  
a 3.145432007711374 4.1459e-08 au
q 2.727212925808792 1.942e-07 au
i 11.70168508725536 7.8508e-06 deg
node 161.9338971121852 3.5013e-05 deg
peri 318.4411901160416 4.6547e-05 deg
M 92.67664988909782 3.0111e-05 deg
tp 2458475.950224853195
(2018-Dec-23.45022485)
0.00016797 TDB
period 2037.599754402258
5.58
4.0286e-05
1.103e-07
d
yr
n .1766784665252417 3.4932e-09 deg/d
Q 3.563651089613957 4.6972e-08 au
  Orbit Determination Parameters
   # obs. used (total)      134  
   data-arc span      8447 days (23.13 yr)  
   first obs. used      1997-03-11  
   last obs. used      2020-04-26  
   planetary ephem.      DE431  
   SB-pert. ephem.      SB431-N16  
   condition code      0  
   norm. resid. RMS      .66174  
   source      ORB  
   producer      Otto Matic  
   solution date      2020-May-22 03:52:43  

Additional Information
 Earth MOID = 1.75496 au 
 Jupiter MOID = 1.54143 au 
 T_jup = 3.163 
[ show covariance matrix ]

Ephemeris | Orbit Diagram | Orbital Elements | Mission Design | Physical Parameters | Discovery Circumstances | Close-Approach Data ]

Physical Parameter Table
Parameter Symbol Value Units Sigma Reference Notes
absolute magnitude H 16.2   n/a MPO292128  

441348 (2008 CO210)          Discovered 2008-Feb-02 by LINEAR at Socorro
Reference: Last Updated: 2015-09-02

[ show close-approach data ]
Ephemeris | Orbit Diagram | Orbital Elements | Mission Design | Physical Parameters | Discovery Circumstances | Close-Approach Data ]
ABOUT SSD CREDITS/AWARDS PRIVACY/COPYRIGHT GLOSSARY LINKS
FirstGov 2020-Jul-06 17:12 UT
(server date/time)  
NASA Home Page
Site Manager:   Ryan S. Park
Webmaster  Alan B. Chamberlin